Theta_e
312 308 307 308 308 308 308 309 312 312 311 311 314 313 308 307 307 309 306 305 304 303
307 309 309 310 310 311 311 313 312 313 311 309 310 312 308 309 306 309 306 304 303 303
309 308 309 310 309 310 310 310 310 310 310 309 309 309 311 310 310 307 305 305 303 302
305 304 308 309 310 310 310 310 310 311 311 311 312 312 310 309 308 306 305 304 304 303
301 303 305 306 308 307 308 309 310 310 310 310 310 310 309 305 306 305 304 304 304 303
301 303 303 304 306 309 308 308 309 308 308 308 309 306 304 305 303 304 304 304 304 303
302 303 304 305 305 307 306 307 308 307 307 304 302 302 301 301 300 301 303 304 303 303
304 305 305 304 305 305 306 308 307 304 304 302 302 301 299 298 298 298 300 304 306 303
304 304 303 303 303 303 303 303 303 302 300 299 302 300 301 300 296 297 300 304 302 303
303 303 304 303 302 302 300 299 298 298 300 300 301 299 299 300 297 298 304 299 298 301
304 300 300 300 299 300 300 299 299 300 300 301 301 299 299 301 305 304 300 298 298 301
301 300 300 299 297 298 299 299 299 300 299 300 299 298 298 301 301 299 298 301 301 300
300 301 299 299 298 297 298 299 301 301 301 301 300 298 298 299 300 300 300 300 300 300
301 300 300 299 299 300 300 301 301 300 301 301 301 300 298 299 301 300 300 300 300 299
Wind_Speed
6 4 4 4 4 4 4 5 5 5 4 4 4 4 4 3 2 4 3 4 3 1
6 7 6 8 6 5 6 5 4 4 3 4 4 3 3 3 3 3 2 3 2 2
6 9 11 8 9 6 8 9 8 6 7 6 5 4 3 1 2 1 2 2 1 2
5 5 10 9 3 5 4 6 6 8 6 4 6 6 5 0 2 1 2 3 1 3
3 4 5 6 7 5 5 5 6 5 7 8 8 6 6 6 6 6 6 5 3 3
5 6 7 6 6 7 6 8 8 8 7 5 6 7 7 7 6 6 6 5 3 2
5 6 6 6 6 5 5 7 8 7 9 8 7 8 8 8 7 7 6 5 2 3
6 6 5 6 6 6 6 6 7 7 6 6 6 7 6 5 5 6 6 6 3 3
6 7 7 7 7 7 7 7 7 7 6 6 4 11 12 8 5 5 5 5 6 6
6 7 8 8 8 8 6 5 6 5 5 5 4 12 13 12 4 4 4 6 5 5
9 8 7 7 7 6 4 5 4 4 4 4 4 12 13 13 6 6 6 5 6 5
8 8 8 7 7 6 5 4 4 3 5 5 4 13 13 7 6 6 6 7 6 5
5 7 6 7 7 4 4 3 3 4 5 9 5 11 12 8 4 7 5 6 6 11
7 6 6 5 4 6 5 7 7 6 4 5 6 7 10 10 6 4 4 4 5 5
Wind_Direction
356 339 322 310 314 298 286 290 291 279 261 259 256 252 200 227 231 241 236 257 240 239
342 337 331 321 312 323 318 305 303 323 309 307 298 271 203 214 232 229 226 278 235 213
356 18 350 2 330 336 343 327 327 319 336 296 289 272 199 103 287 112 261 277 358 324
14 3 38 303 325 338 8 318 350 346 316 9 31 10 30 75 279 12 295 306 307 320
30 14 319 290 330 328 340 360 2 357 2 54 64 6 357 29 24 26 12 344 355 348
354 327 306 320 347 28 13 26 1 11 12 42 59 64 15 21 19 13 9 2 18 335
359 344 339 1 30 29 14 26 23 35 31 54 49 39 20 8 358 352 341 334 27 32
17 27 23 20 22 11 11 44 57 46 41 34 32 15 4 351 333 319 320 321 338 12
25 12 17 29 35 35 34 36 46 42 30 22 19 358 353 341 316 309 315 343 21 11
46 35 27 30 32 33 21 31 32 28 29 3 10 349 334 333 299 313 51 48 22 0
38 34 19 20 20 10 13 4 10 1 3 354 21 354 343 354 67 66 54 48 23 356
32 27 19 12 6 3 354 351 359 355 1 4 26 1 358 18 47 58 44 42 28 23
28 34 24 10 354 338 340 345 355 356 46 30 12 10 7 25 50 50 40 34 29 31
31 25 10 357 333 339 348 26 53 47 30 17 17 21 25 37 50 42 48 39 34 29